Nature

Haifa Airport (HFA/LLHA) also known as U Michaeli Airport is a small international airport located in Haifa, Israel. It is located to the east of the city.
It mainly serves civilian flights, with some military usage. Most passenger flights utilizing the airport are domestic operations to Eilat and Tel Aviv.

AT EILAT AIRPORT YOU CAN FIND A SINGLE RUNWAY (16/34).

Scenery:

Sim Download Size Author
P3D & FSX LLHA Haifa v1.1 16.9MB Freeware Niv Tesler + Bar Rodoy
P3D & FSX ICVFR Haifa 32.8MB Freeware Chris Bell

Charts:

File Name
General Aerodrome Chart
Ground Parkings Chart
Ground Parkings G
Ground Parkings N
CVFR Entrance, and exit CVFR
CVFR Training Zones Chart
CVFR Traffic Pattrens Chart

METAR & TAF:

Available data for LLHA from the past hour
HAIFA (ISR-AFB)
Metar
LLHA 210950Z 27010KT 230V310 9999 SCT029 29/21 Q1008

09:50 UTC

Wind: 270° 10kt

Visibility: 9999 m

Sky: SCT 2900 ft

Temp: 29 deg C / 84.2 deg F

Dewpoint: 21 deg C / 69.8 deg F

Pressure: 1008 hPa

TAF
TAF LLHA 210504Z 2106/2206 24006KT 9999 SCT025 BECMG 2107/2109 29010KT FEW030 BECMG 2118/2120 25006KT SCT025 TX30/2111Z TN25/2202Z